Time,TemperatureF,DewpointF,PressureIn,WindDirection,WindDirectionDegrees,WindSpeedMPH,WindSpeedGustMPH,Humidity,HourlyPrecipIn,Conditions,Clouds,dailyrainin,SoftwareType,DateUTC
2013-05-17 00:01:00,41.1,37.2,30.08,SSE,155,1.0,1.0,86,0.00,,CLR,0.00,VWS V14.01,2013-05-17 04:01:00,
2013-05-17 00:03:00,40.7,36.2,30.08,SSE,148,1.0,1.0,84,0.00,,CLR,0.00,VWS V14.01,2013-05-17 04:03:00,
2013-05-17 00:08:00,40.8,36.7,30.08,SE,130,1.0,2.0,85,0.00,,CLR,0.00,VWS V14.01,2013-05-17 04:08:00,
2013-05-17 00:13:00,40.1,35.7,30.08,SE,130,1.0,2.0,84,0.00,,CLR,0.00,VWS V14.01,2013-05-17 04:13:00,
2013-05-17 00:18:00,40.0,36.5,30.08,ESE,111,2.0,2.0,87,0.00,,CLR,0.00,VWS V14.01,2013-05-17 04:18:00,
2013-05-17 00:23:00,40.3,36.5,30.08,SE,131,2.0,3.0,86,0.00,,CLR,0.00,VWS V14.01,2013-05-17 04:23:00,
2013-05-17 00:28:00,39.9,36.6,30.08,ESE,123,2.0,2.0,88,0.00,,CLR,0.00,VWS V14.01,2013-05-17 04:28:00,
2013-05-17 00:34:00,39.5,36.2,30.08,ESE,108,3.0,3.0,88,0.00,,CLR,0.00,VWS V14.01,2013-05-17 04:34:00,
2013-05-17 00:39:00,40.0,37.0,30.08,ESE,108,1.0,2.0,89,0.00,,CLR,0.00,VWS V14.01,2013-05-17 04:39:00,
2013-05-17 00:44:00,40.4,36.8,30.08,ESE,108,1.0,2.0,87,0.00,,CLR,0.00,VWS V14.01,2013-05-17 04:44:00,
2013-05-17 00:49:00,40.7,37.1,30.09,ESE,108,0.0,1.0,87,0.00,,CLR,0.00,VWS V14.01,2013-05-17 04:49:00,
2013-05-17 00:54:00,40.0,35.9,30.09,South,186,2.0,2.0,85,0.00,,CLR,0.00,VWS V14.01,2013-05-17 04:54:00,
2013-05-17 00:59:00,38.7,35.2,30.09,SSW,194,0.0,0.0,87,0.00,,CLR,0.00,VWS V14.01,2013-05-17 04:59:00,
2013-05-17 01:04:00,37.6,34.1,30.09,SE,144,1.0,1.0,87,0.00,,CLR,0.00,VWS V14.01,2013-05-17 05:04:00,
2013-05-17 01:09:00,38.0,35.3,30.09,SE,144,1.0,1.0,90,0.00,,CLR,0.00,VWS V14.01,2013-05-17 05:09:00,
2013-05-17 01:14:00,37.7,34.2,30.09,SE,144,0.0,1.0,87,0.00,,CLR,0.00,VWS V14.01,2013-05-17 05:14:00,
2013-05-17 01:19:00,37.3,34.6,30.09,ESE,115,2.0,2.0,90,0.00,,CLR,0.00,VWS V14.01,2013-05-17 05:19:00,
2013-05-17 01:24:00,37.3,34.6,30.09,ESE,115,0.0,0.0,90,0.00,,CLR,0.00,VWS V14.01,2013-05-17 05:24:00,
2013-05-17 01:29:00,37.1,34.4,30.09,ESE,115,0.0,0.0,90,0.00,,CLR,0.00,VWS V14.01,2013-05-17 05:29:00,
2013-05-17 01:34:00,36.8,34.2,30.09,SE,126,1.0,2.0,90,0.00,,CLR,0.00,VWS V14.01,2013-05-17 05:34:00,
2013-05-17 01:39:00,36.8,34.7,30.09,SE,126,1.0,2.0,92,0.00,,CLR,0.00,VWS V14.01,2013-05-17 05:39:00,
2013-05-17 01:44:00,36.3,33.9,30.09,SE,126,1.0,1.0,91,0.00,,CLR,0.00,VWS V14.01,2013-05-17 05:44:00,
2013-05-17 01:49:00,35.4,33.0,30.08,SE,124,1.0,1.0,91,0.00,,CLR,0.00,VWS V14.01,2013-05-17 05:49:00,
2013-05-17 01:54:00,35.9,33.8,30.09,SE,128,1.0,1.0,92,0.00,,CLR,0.00,VWS V14.01,2013-05-17 05:54:00,
2013-05-17 02:00:00,36.0,33.9,30.08,SE,128,0.0,0.0,92,0.00,,CLR,0.00,VWS V14.01,2013-05-17 06:00:00,
2013-05-17 02:05:00,35.3,32.7,30.09,SE,128,1.0,2.0,90,0.00,,CLR,0.00,VWS V14.01,2013-05-17 06:05:00,
2013-05-17 02:10:00,35.2,33.1,30.09,SE,128,0.0,0.0,92,0.00,,CLR,0.00,VWS V14.01,2013-05-17 06:10:00,
2013-05-17 02:15:00,34.9,32.8,30.09,SE,128,0.0,1.0,92,0.00,,CLR,0.00,VWS V14.01,2013-05-17 06:15:00,
2013-05-17 02:20:00,34.6,32.5,30.09,ESE,113,2.0,2.0,92,0.00,,CLR,0.00,VWS V14.01,2013-05-17 06:20:00,
2013-05-17 02:25:00,34.9,33.1,30.09,ESE,105,1.0,2.0,93,0.00,,CLR,0.00,VWS V14.01,2013-05-17 06:25:00,
2013-05-17 02:30:00,35.7,34.2,30.09,ESE,105,1.0,1.0,94,0.00,,CLR,0.00,VWS V14.01,2013-05-17 06:30:00,
2013-05-17 02:35:00,35.2,33.1,30.09,ESE,107,1.0,2.0,92,0.00,,CLR,0.00,VWS V14.01,2013-05-17 06:35:00,
2013-05-17 02:40:00,35.5,33.7,30.09,ESE,107,0.0,0.0,93,0.00,,CLR,0.00,VWS V14.01,2013-05-17 06:40:00,
2013-05-17 02:45:00,35.4,33.6,30.10,ESE,107,1.0,1.0,93,0.00,,CLR,0.00,VWS V14.01,2013-05-17 06:45:00,
2013-05-17 02:50:00,34.3,32.2,30.10,ESE,107,1.0,1.0,92,0.00,,CLR,0.00,VWS V14.01,2013-05-17 06:50:00,
2013-05-17 02:55:00,35.0,33.5,30.10,ESE,120,2.0,2.0,94,0.00,,CLR,0.00,VWS V14.01,2013-05-17 06:55:00,
2013-05-17 03:00:00,35.3,33.8,30.10,ESE,119,1.0,2.0,94,0.00,,CLR,0.00,VWS V14.01,2013-05-17 07:00:00,
2013-05-17 03:05:00,34.9,33.1,30.09,ESE,119,2.0,2.0,93,0.00,,CLR,0.00,VWS V14.01,2013-05-17 07:05:00,
2013-05-17 03:10:00,35.2,33.7,30.09,ESE,119,1.0,2.0,94,0.00,,CLR,0.00,VWS V14.01,2013-05-17 07:10:00,
2013-05-17 03:15:00,35.3,33.8,30.09,ESE,119,0.0,1.0,94,0.00,,CLR,0.00,VWS V14.01,2013-05-17 07:15:00,
2013-05-17 03:20:00,35.2,33.7,30.09,ESE,119,0.0,0.0,94,0.00,,CLR,0.00,VWS V14.01,2013-05-17 07:20:00,
2013-05-17 03:25:00,34.9,33.3,30.09,ESE,119,0.0,1.0,94,0.00,,CLR,0.00,VWS V14.01,2013-05-17 07:25:00,
2013-05-17 03:30:00,34.6,32.8,30.09,ESE,119,0.0,1.0,93,0.00,,CLR,0.00,VWS V14.01,2013-05-17 07:30:00,
2013-05-17 03:35:00,34.4,32.9,30.10,ESE,119,1.0,1.0,94,0.00,,CLR,0.00,VWS V14.01,2013-05-17 07:35:00,
2013-05-17 03:41:00,34.0,32.2,30.10,ESE,119,0.0,0.0,93,0.00,,CLR,0.00,VWS V14.01,2013-05-17 07:41:00,
2013-05-17 03:46:00,34.2,32.7,30.10,SSE,167,1.0,1.0,94,0.00,,CLR,0.00,VWS V14.01,2013-05-17 07:46:00,
2013-05-17 03:51:00,34.1,32.3,30.10,SSE,167,1.0,1.0,93,0.00,,CLR,0.00,VWS V14.01,2013-05-17 07:51:00,
2013-05-17 03:56:00,33.9,32.4,30.10,SSE,148,2.0,2.0,94,0.00,,CLR,0.00,VWS V14.01,2013-05-17 07:56:00,
2013-05-17 04:01:00,34.3,32.8,30.10,SSE,148,0.0,1.0,94,0.00,,CLR,0.00,VWS V14.01,2013-05-17 08:01:00,
2013-05-17 04:06:00,34.7,33.4,30.10,SSE,148,0.0,0.0,95,0.00,,CLR,0.00,VWS V14.01,2013-05-17 08:06:00,
2013-05-17 04:11:00,33.6,31.8,30.10,SSE,148,2.0,2.0,93,0.00,,CLR,0.00,VWS V14.01,2013-05-17 08:11:00,
2013-05-17 04:16:00,33.5,32.0,30.11,ESE,118,1.0,1.0,94,0.00,,CLR,0.00,VWS V14.01,2013-05-17 08:16:00,
2013-05-17 04:21:00,34.1,32.8,30.11,ESE,118,1.0,2.0,95,0.00,,CLR,0.00,VWS V14.01,2013-05-17 08:21:00,
2013-05-17 04:26:00,34.5,33.2,30.11,ESE,118,1.0,1.0,95,0.00,,CLR,0.00,VWS V14.01,2013-05-17 08:26:00,
2013-05-17 04:31:00,34.3,32.8,30.11,ESE,118,1.0,1.0,94,0.00,,CLR,0.00,VWS V14.01,2013-05-17 08:31:00,
2013-05-17 04:36:00,34.2,32.7,30.11,ESE,118,1.0,1.0,94,0.00,,CLR,0.00,VWS V14.01,2013-05-17 08:36:00,
2013-05-17 04:41:00,34.3,33.0,30.11,SE,134,3.0,3.0,95,0.00,,CLR,0.00,VWS V14.01,2013-05-17 08:41:00,
2013-05-17 04:46:00,34.6,33.0,30.11,SE,131,2.0,3.0,94,0.00,,CLR,0.00,VWS V14.01,2013-05-17 08:46:00,
2013-05-17 04:51:00,34.6,33.0,30.11,ESE,120,0.0,1.0,94,0.00,,CLR,0.00,VWS V14.01,2013-05-17 08:51:00,
2013-05-17 04:56:00,34.6,33.0,30.11,ESE,120,0.0,0.0,94,0.00,,CLR,0.00,VWS V14.01,2013-05-17 08:56:00,
2013-05-17 05:01:00,35.5,34.2,30.11,SE,125,4.0,5.0,95,0.00,,CLR,0.00,VWS V14.01,2013-05-17 09:01:00,
2013-05-17 05:06:00,35.9,34.6,30.11,ESE,121,0.0,1.0,95,0.00,,CLR,0.00,VWS V14.01,2013-05-17 09:06:00,
2013-05-17 05:11:00,35.5,34.0,30.11,SE,124,1.0,1.0,94,0.00,,CLR,0.00,VWS V14.01,2013-05-17 09:11:00,
2013-05-17 05:16:00,35.1,33.5,30.10,SE,124,2.0,3.0,94,0.00,,CLR,0.00,VWS V14.01,2013-05-17 09:16:00,
2013-05-17 05:21:00,35.2,33.7,30.11,ESE,120,1.0,2.0,94,0.00,,CLR,0.00,VWS V14.01,2013-05-17 09:21:00,
2013-05-17 05:26:00,35.3,33.8,30.11,ESE,120,2.0,2.0,94,0.00,,CLR,0.00,VWS V14.01,2013-05-17 09:26:00,
2013-05-17 05:31:00,35.7,34.4,30.11,ESE,111,3.0,3.0,95,0.00,,CLR,0.00,VWS V14.01,2013-05-17 09:31:00,
2013-05-17 05:36:00,35.9,34.6,30.11,ESE,111,1.0,2.0,95,0.00,,CLR,0.00,VWS V14.01,2013-05-17 09:36:00,
2013-05-17 05:41:00,35.4,33.8,30.11,ESE,113,2.0,2.0,94,0.00,,CLR,0.00,VWS V14.01,2013-05-17 09:41:00,
2013-05-17 05:46:00,35.5,34.2,30.12,ESE,113,1.0,1.0,95,0.00,,CLR,0.00,VWS V14.01,2013-05-17 09:46:00,
2013-05-17 05:51:00,35.5,34.0,30.12,ESE,113,1.0,1.0,94,0.00,,CLR,0.00,VWS V14.01,2013-05-17 09:51:00,
2013-05-17 05:56:00,35.2,33.4,30.12,ESE,113,0.0,1.0,93,0.00,,CLR,0.00,VWS V14.01,2013-05-17 09:56:00,
2013-05-17 06:01:00,35.2,33.7,30.12,ESE,116,2.0,2.0,94,0.00,,CLR,0.00,VWS V14.01,2013-05-17 10:01:00,
2013-05-17 06:06:00,35.7,34.4,30.12,ESE,123,1.0,2.0,95,0.00,,CLR,0.00,VWS V14.01,2013-05-17 10:06:00,
2013-05-17 06:11:00,35.9,34.3,30.12,ESE,118,2.0,2.0,94,0.00,,CLR,0.00,VWS V14.01,2013-05-17 10:11:00,
2013-05-17 06:16:00,36.1,34.8,30.12,ESE,118,1.0,1.0,95,0.00,,CLR,0.00,VWS V14.01,2013-05-17 10:16:00,
2013-05-17 06:21:00,36.2,34.9,30.12,ESE,118,1.0,1.0,95,0.00,,CLR,0.00,VWS V14.01,2013-05-17 10:21:00,
2013-05-17 06:26:00,36.8,35.5,30.12,ESE,118,1.0,2.0,95,0.00,,CLR,0.00,VWS V14.01,2013-05-17 10:26:00,
2013-05-17 06:31:00,37.2,35.6,30.12,ESE,120,2.0,2.0,94,0.00,,CLR,0.00,VWS V14.01,2013-05-17 10:31:00,
2013-05-17 06:36:00,37.6,36.0,30.13,SE,129,1.0,2.0,94,0.00,,CLR,0.00,VWS V14.01,2013-05-17 10:36:00,
2013-05-17 06:41:00,38.2,36.4,30.13,SE,128,1.0,1.0,93,0.00,,CLR,0.00,VWS V14.01,2013-05-17 10:41:00,
2013-05-17 06:46:00,38.6,36.8,30.13,SE,128,0.0,0.0,93,0.00,,CLR,0.00,VWS V14.01,2013-05-17 10:46:00,
2013-05-17 06:51:00,38.7,36.8,30.13,SE,129,1.0,1.0,93,0.00,,CLR,0.00,VWS V14.01,2013-05-17 10:51:00,
2013-05-17 06:56:00,39.5,37.7,30.13,SE,128,1.0,2.0,93,0.00,,CLR,0.00,VWS V14.01,2013-05-17 10:56:00,
2013-05-17 07:01:00,40.5,38.1,30.14,SE,129,1.0,1.0,91,0.00,,CLR,0.00,VWS V14.01,2013-05-17 11:01:00,
2013-05-17 07:06:00,41.3,38.6,30.14,SE,130,1.0,1.0,90,0.00,,CLR,0.00,VWS V14.01,2013-05-17 11:06:00,
2013-05-17 07:11:00,41.9,39.2,30.14,SE,134,1.0,1.0,90,0.00,,CLR,0.00,VWS V14.01,2013-05-17 11:11:00,
2013-05-17 07:16:00,42.3,39.6,30.14,SSW,211,2.0,2.0,90,0.00,,CLR,0.00,VWS V14.01,2013-05-17 11:16:00,
2013-05-17 07:22:00,42.9,40.2,30.14,SW,219,1.0,1.0,90,0.00,,CLR,0.00,VWS V14.01,2013-05-17 11:22:00,
2013-05-17 07:27:00,43.8,40.5,30.14,SE,133,2.0,3.0,88,0.00,,CLR,0.00,VWS V14.01,2013-05-17 11:27:00,
2013-05-17 07:32:00,44.4,40.8,30.14,SSE,154,2.0,2.0,87,0.00,,CLR,0.00,VWS V14.01,2013-05-17 11:32:00,
2013-05-17 07:37:00,44.7,40.8,30.15,South,187,2.0,2.0,86,0.00,,CLR,0.00,VWS V14.01,2013-05-17 11:37:00,
2013-05-17 07:42:00,45.1,41.5,30.15,SW,229,1.0,2.0,87,0.00,,CLR,0.00,VWS V14.01,2013-05-17 11:42:00,
2013-05-17 07:47:00,45.1,41.8,30.15,SW,229,1.0,1.0,88,0.00,,CLR,0.00,VWS V14.01,2013-05-17 11:47:00,
2013-05-17 07:52:00,45.5,41.9,30.15,SSW,203,1.0,1.0,87,0.00,,CLR,0.00,VWS V14.01,2013-05-17 11:52:00,
2013-05-17 07:57:00,45.8,41.5,30.15,SSW,205,1.0,1.0,85,0.00,,CLR,0.00,VWS V14.01,2013-05-17 11:57:00,
2013-05-17 08:02:00,46.2,42.0,30.15,SW,215,1.0,2.0,85,0.00,,FEW110,0.00,VWS V14.01,2013-05-17 12:02:00,
2013-05-17 08:07:00,46.9,42.3,30.16,South,187,2.0,2.0,84,0.00,,FEW110,0.00,VWS V14.01,2013-05-17 12:07:00,
2013-05-17 08:12:00,47.9,42.7,30.16,SE,140,3.0,5.0,82,0.00,,FEW110,0.00,VWS V14.01,2013-05-17 12:12:00,
2013-05-17 08:17:00,48.5,42.6,30.16,SE,142,3.0,3.0,80,0.00,,FEW110,0.00,VWS V14.01,2013-05-17 12:17:00,
2013-05-17 08:22:00,49.1,42.5,30.16,SSW,194,4.0,4.0,78,0.00,,FEW110,0.00,VWS V14.01,2013-05-17 12:22:00,
2013-05-17 08:27:00,49.4,42.2,30.16,SE,142,2.0,4.0,76,0.00,,FEW110,0.00,VWS V14.01,2013-05-17 12:27:00,
2013-05-17 08:32:00,49.6,42.0,30.16,SSE,157,6.0,6.0,75,0.00,,FEW110,0.00,VWS V14.01,2013-05-17 12:32:00,
2013-05-17 08:37:00,49.4,41.1,30.17,SW,224,4.0,6.0,73,0.00,,FEW110,0.00,VWS V14.01,2013-05-17 12:37:00,
2013-05-17 08:43:00,49.4,41.1,30.17,SSW,192,2.0,6.0,73,0.00,,FEW110,0.00,VWS V14.01,2013-05-17 12:43:00,
2013-05-17 08:48:00,49.5,41.6,30.17,SSE,168,3.0,4.0,74,0.00,,FEW110,0.00,VWS V14.01,2013-05-17 12:48:00,
2013-05-17 08:53:00,49.6,41.3,30.17,SW,223,4.0,4.0,73,0.00,,FEW110,0.00,VWS V14.01,2013-05-17 12:53:00,
2013-05-17 08:58:00,49.8,41.5,30.17,South,171,2.0,4.0,73,0.00,,FEW110,0.00,VWS V14.01,2013-05-17 12:58:00,
2013-05-17 09:03:00,50.2,41.9,30.17,SSE,160,5.0,5.0,73,0.00,,OVC100,0.00,VWS V14.01,2013-05-17 13:03:00,
2013-05-17 09:08:00,50.7,42.0,30.17,ESE,117,4.0,5.0,72,0.00,,OVC100,0.00,VWS V14.01,2013-05-17 13:08:00,
2013-05-17 09:13:00,51.1,41.7,30.17,SSE,167,1.0,3.0,70,0.00,,OVC100,0.00,VWS V14.01,2013-05-17 13:13:00,
2013-05-17 09:18:00,51.5,42.8,30.17,SW,220,4.0,4.0,72,0.00,,OVC100,0.00,VWS V14.01,2013-05-17 13:18:00,
2013-05-17 09:23:00,52.1,42.6,30.17,ESE,123,1.0,1.0,70,0.00,,OVC100,0.00,VWS V14.01,2013-05-17 13:23:00,
2013-05-17 09:28:00,52.7,42.8,30.17,South,172,2.0,4.0,69,0.00,,OVC100,0.00,VWS V14.01,2013-05-17 13:28:00,
2013-05-17 09:33:00,53.1,42.5,30.18,SE,143,4.0,4.0,67,0.00,,OVC100,0.00,VWS V14.01,2013-05-17 13:33:00,
2013-05-17 09:38:00,53.3,43.0,30.18,ESE,123,2.0,3.0,68,0.00,,OVC100,0.00,VWS V14.01,2013-05-17 13:38:00,
2013-05-17 09:43:00,53.7,42.6,30.18,ESE,103,2.0,3.0,66,0.00,,OVC100,0.00,VWS V14.01,2013-05-17 13:43:00,
2013-05-17 09:48:00,54.1,43.0,30.18,SE,127,4.0,5.0,66,0.00,,OVC100,0.00,VWS V14.01,2013-05-17 13:48:00,
2013-05-17 09:53:00,54.3,42.8,30.18,ESE,122,5.0,7.0,65,0.00,,OVC100,0.00,VWS V14.01,2013-05-17 13:53:00,
2013-05-17 09:58:00,54.5,42.2,30.18,SE,132,7.0,8.0,63,0.00,,OVC100,0.00,VWS V14.01,2013-05-17 13:58:00,
2013-05-17 10:03:00,54.5,42.2,30.18,ESE,110,6.0,6.0,63,0.00,,OVC100,0.00,VWS V14.01,2013-05-17 14:03:00,
2013-05-17 10:08:00,54.6,42.7,30.18,SE,135,8.0,10.0,64,0.00,,OVC100,0.00,VWS V14.01,2013-05-17 14:08:00,
2013-05-17 10:13:00,55.4,43.0,30.19,SE,125,4.0,5.0,63,0.00,,OVC100,0.00,VWS V14.01,2013-05-17 14:13:00,
2013-05-17 10:19:00,55.8,42.6,30.19,SE,134,1.0,3.0,61,0.00,,OVC100,0.00,VWS V14.01,2013-05-17 14:19:00,
2013-05-17 10:24:00,56.0,42.3,30.19,ESE,110,2.0,3.0,60,0.00,,OVC100,0.00,VWS V14.01,2013-05-17 14:24:00,
2013-05-17 10:29:00,56.1,43.3,30.19,SE,130,3.0,4.0,62,0.00,,OVC100,0.00,VWS V14.01,2013-05-17 14:29:00,
2013-05-17 10:34:00,56.5,43.7,30.20,SE,133,4.0,8.0,62,0.00,,OVC100,0.00,VWS V14.01,2013-05-17 14:34:00,
2013-05-17 10:39:00,56.5,43.2,30.20,SE,130,8.0,9.0,61,0.00,,OVC100,0.00,VWS V14.01,2013-05-17 14:39:00,
2013-05-17 10:44:00,56.6,42.9,30.20,SE,125,5.0,7.0,60,0.00,,OVC100,0.00,VWS V14.01,2013-05-17 14:44:00,
2013-05-17 10:49:00,56.6,42.5,30.20,SE,146,5.0,7.0,59,0.00,,OVC100,0.00,VWS V14.01,2013-05-17 14:49:00,
2013-05-17 10:54:00,56.6,42.5,30.20,SE,141,5.0,7.0,59,0.00,,OVC100,0.00,VWS V14.01,2013-05-17 14:54:00,
2013-05-17 10:59:00,57.1,42.9,30.20,SE,138,9.0,10.0,59,0.00,,OVC100,0.00,VWS V14.01,2013-05-17 14:59:00,
2013-05-17 11:04:00,57.3,42.7,30.20,SE,138,3.0,4.0,58,0.00,,OVC100,0.00,VWS V14.01,2013-05-17 15:04:00,
2013-05-17 11:09:00,57.7,43.0,30.20,SE,145,4.0,4.0,58,0.00,,OVC100,0.00,VWS V14.01,2013-05-17 15:09:00,
2013-05-17 11:14:00,58.0,43.3,30.20,SW,217,3.0,4.0,58,0.00,,OVC100,0.00,VWS V14.01,2013-05-17 15:14:00,
2013-05-17 11:19:00,58.5,43.8,30.20,SSW,212,4.0,4.0,58,0.00,,OVC100,0.00,VWS V14.01,2013-05-17 15:19:00,
2013-05-17 11:24:00,58.5,42.9,30.20,ESE,123,3.0,4.0,56,0.00,,OVC100,0.00,VWS V14.01,2013-05-17 15:24:00,
2013-05-17 11:29:00,58.7,43.1,30.20,ESE,123,3.0,3.0,56,0.00,,OVC100,0.00,VWS V14.01,2013-05-17 15:29:00,
2013-05-17 11:34:00,59.3,44.1,30.20,South,169,1.0,3.0,57,0.00,,OVC100,0.00,VWS V14.01,2013-05-17 15:34:00,
2013-05-17 11:39:00,59.1,43.4,30.20,SW,235,2.0,2.0,56,0.00,,OVC100,0.00,VWS V14.01,2013-05-17 15:39:00,
2013-05-17 11:44:00,59.8,42.7,30.20,ESE,104,2.0,2.0,53,0.00,,OVC100,0.00,VWS V14.01,2013-05-17 15:44:00,
2013-05-17 11:49:00,59.7,42.6,30.20,SE,142,7.0,7.0,53,0.00,,OVC100,0.00,VWS V14.01,2013-05-17 15:49:00,
2013-05-17 11:54:00,60.2,43.0,30.20,SE,132,3.0,3.0,53,0.00,,OVC100,0.00,VWS V14.01,2013-05-17 15:54:00,
2013-05-17 12:00:00,60.0,43.3,30.20,SE,137,4.0,5.0,54,0.00,,OVC100,0.00,VWS V14.01,2013-05-17 16:00:00,
2013-05-17 12:05:00,60.4,42.7,30.20,SE,125,5.0,6.0,52,0.00,,OVC100,0.00,VWS V14.01,2013-05-17 16:05:00,
2013-05-17 12:10:00,60.3,43.1,30.20,SE,128,5.0,5.0,53,0.00,,OVC100,0.00,VWS V14.01,2013-05-17 16:10:00,
2013-05-17 12:15:00,60.4,43.2,30.19,ESE,107,2.0,6.0,53,0.00,,OVC100,0.00,VWS V14.01,2013-05-17 16:15:00,
2013-05-17 12:20:00,61.8,43.5,30.19,SE,133,8.0,12.0,51,0.00,,OVC100,0.00,VWS V14.01,2013-05-17 16:20:00,
2013-05-17 12:25:00,61.8,45.0,30.19,South,182,7.0,11.0,54,0.00,,OVC100,0.00,VWS V14.01,2013-05-17 16:25:00,
2013-05-17 12:30:00,62.0,43.2,30.19,SE,131,12.0,14.0,50,0.00,,OVC100,0.00,VWS V14.01,2013-05-17 16:30:00,
2013-05-17 12:35:00,62.6,42.7,30.19,SE,140,8.0,10.0,48,0.00,,OVC100,0.00,VWS V14.01,2013-05-17 16:35:00,
2013-05-17 12:40:00,62.0,41.6,30.18,ESE,123,3.0,8.0,47,0.00,,OVC100,0.00,VWS V14.01,2013-05-17 16:40:00,
2013-05-17 12:45:00,62.3,41.8,30.18,SSW,212,7.0,8.0,47,0.00,,OVC100,0.00,VWS V14.01,2013-05-17 16:45:00,
2013-05-17 12:50:00,62.3,44.0,30.18,West,273,2.0,2.0,51,0.00,,OVC100,0.00,VWS V14.01,2013-05-17 16:50:00,
2013-05-17 12:55:00,62.7,43.8,30.18,SE,129,5.0,7.0,50,0.00,,OVC100,0.00,VWS V14.01,2013-05-17 16:55:00,
2013-05-17 13:00:00,62.3,43.4,30.18,SE,124,8.0,8.0,50,0.00,,OVC100,0.00,VWS V14.01,2013-05-17 17:00:00,
2013-05-17 13:05:00,62.1,42.7,30.18,SE,142,4.0,4.0,49,0.00,,OVC095,0.00,VWS V14.01,2013-05-17 17:05:00,
2013-05-17 13:10:00,61.8,42.5,30.18,ESE,113,6.0,8.0,49,0.00,,OVC095,0.00,VWS V14.01,2013-05-17 17:10:00,
2013-05-17 13:15:00,62.5,43.1,30.18,East,101,4.0,10.0,49,0.00,,OVC095,0.00,VWS V14.01,2013-05-17 17:15:00,
2013-05-17 13:20:00,63.1,42.6,30.18,NW,312,4.0,4.0,47,0.00,,OVC095,0.00,VWS V14.01,2013-05-17 17:20:00,
2013-05-17 13:25:00,62.7,43.3,30.17,East,96,2.0,6.0,49,0.00,,OVC095,0.00,VWS V14.01,2013-05-17 17:25:00,
2013-05-17 13:30:00,64.1,45.1,30.17,SE,126,7.0,8.0,50,0.00,,OVC095,0.00,VWS V14.01,2013-05-17 17:30:00,
2013-05-17 13:35:00,64.3,44.2,30.17,ESE,103,7.0,8.0,48,0.00,,OVC095,0.00,VWS V14.01,2013-05-17 17:35:00,
2013-05-17 13:40:00,64.0,43.9,30.17,ESE,105,10.0,13.0,48,0.00,,OVC095,0.00,VWS V14.01,2013-05-17 17:40:00,
2013-05-17 13:45:00,63.5,42.4,30.17,SE,138,7.0,12.0,46,0.00,,OVC095,0.00,VWS V14.01,2013-05-17 17:45:00,
2013-05-17 13:51:00,64.3,44.2,30.17,SE,126,4.0,7.0,48,0.00,,OVC095,0.00,VWS V14.01,2013-05-17 17:51:00,
2013-05-17 13:56:00,63.6,41.9,30.17,SE,132,3.0,4.0,45,0.00,,OVC095,0.00,VWS V14.01,2013-05-17 17:56:00,
2013-05-17 14:01:00,63.1,42.0,30.17,SE,138,7.0,8.0,46,0.00,,OVC095,0.00,VWS V14.01,2013-05-17 18:01:00,
2013-05-17 14:06:00,63.7,43.7,30.17,SW,225,4.0,5.0,48,0.00,,OVC090,0.00,VWS V14.01,2013-05-17 18:06:00,
2013-05-17 14:11:00,63.8,42.6,30.17,SE,130,3.0,4.0,46,0.00,,OVC090,0.00,VWS V14.01,2013-05-17 18:11:00,
2013-05-17 14:16:00,63.8,43.2,30.16,SE,126,3.0,6.0,47,0.00,,OVC090,0.00,VWS V14.01,2013-05-17 18:16:00,
2013-05-17 14:21:00,65.1,43.8,30.17,ESE,110,1.0,2.0,46,0.00,,OVC090,0.00,VWS V14.01,2013-05-17 18:21:00,
2013-05-17 14:26:00,65.4,44.1,30.16,ESE,122,9.0,9.0,46,0.00,,OVC090,0.00,VWS V14.01,2013-05-17 18:26:00,
2013-05-17 14:31:00,65.6,43.7,30.17,SE,141,8.0,9.0,45,0.00,,OVC090,0.00,VWS V14.01,2013-05-17 18:31:00,
2013-05-17 14:36:00,65.3,42.8,30.16,East,94,6.0,7.0,44,0.00,,OVC090,0.00,VWS V14.01,2013-05-17 18:36:00,
2013-05-17 14:41:00,65.2,42.2,30.16,SSE,151,5.0,6.0,43,0.00,,OVC090,0.00,VWS V14.01,2013-05-17 18:41:00,
2013-05-17 14:46:00,64.9,42.5,30.16,SE,125,7.0,7.0,44,0.00,,OVC090,0.00,VWS V14.01,2013-05-17 18:46:00,
2013-05-17 14:51:00,64.6,42.2,30.16,ESE,104,7.0,7.0,44,0.00,,OVC090,0.00,VWS V14.01,2013-05-17 18:51:00,
2013-05-17 14:56:00,64.9,42.5,30.16,ESE,123,8.0,10.0,44,0.00,,OVC090,0.00,VWS V14.01,2013-05-17 18:56:00,
2013-05-17 15:01:00,64.3,41.9,30.15,ESE,114,6.0,7.0,44,0.00,,OVC090,0.00,VWS V14.01,2013-05-17 19:01:00,
2013-05-17 15:06:00,64.9,43.1,30.15,SE,135,10.0,10.0,45,0.00,,SCT095,0.00,VWS V14.01,2013-05-17 19:06:00,
2013-05-17 15:11:00,65.3,42.8,30.15,SE,130,4.0,6.0,44,0.00,,SCT095,0.00,VWS V14.01,2013-05-17 19:11:00,
2013-05-17 15:16:00,64.9,41.3,30.16,SSE,148,6.0,7.0,42,0.00,,SCT095,0.00,VWS V14.01,2013-05-17 19:16:00,
2013-05-17 15:21:00,64.8,41.8,30.16,East,100,4.0,7.0,43,0.00,,SCT095,0.00,VWS V14.01,2013-05-17 19:21:00,
2013-05-17 15:26:00,65.7,42.0,30.16,SE,140,9.0,9.0,42,0.00,,SCT095,0.00,VWS V14.01,2013-05-17 19:26:00,
2013-05-17 15:31:00,65.9,42.8,30.15,East,94,10.0,12.0,43,0.00,,SCT095,0.00,VWS V14.01,2013-05-17 19:31:00,
2013-05-17 15:36:00,66.0,42.9,30.16,ESE,113,6.0,6.0,43,0.00,,SCT095,0.00,VWS V14.01,2013-05-17 19:36:00,
2013-05-17 15:42:00,65.6,43.7,30.15,ESE,103,6.0,8.0,45,0.00,,SCT095,0.00,VWS V14.01,2013-05-17 19:42:00,
2013-05-17 15:47:00,66.0,42.3,30.15,ESE,113,12.0,13.0,42,0.00,,SCT095,0.00,VWS V14.01,2013-05-17 19:47:00,
2013-05-17 15:52:00,66.0,43.5,30.15,SSW,209,5.0,5.0,44,0.00,,SCT095,0.00,VWS V14.01,2013-05-17 19:52:00,
2013-05-17 15:57:00,66.0,42.3,30.15,ENE,69,11.0,11.0,42,0.00,,SCT095,0.00,VWS V14.01,2013-05-17 19:57:00,
2013-05-17 16:02:00,65.0,43.7,30.15,East,86,11.0,11.0,46,0.00,,SCT095,0.00,VWS V14.01,2013-05-17 20:02:00,
2013-05-17 16:07:00,64.8,44.7,30.15,ESE,107,9.0,11.0,48,0.00,,CLR,0.00,VWS V14.01,2013-05-17 20:07:00,
2013-05-17 16:12:00,65.0,44.3,30.15,East,90,12.0,12.0,47,0.00,,CLR,0.00,VWS V14.01,2013-05-17 20:12:00,
2013-05-17 16:17:00,65.4,44.7,30.15,SE,143,7.0,11.0,47,0.00,,CLR,0.00,VWS V14.01,2013-05-17 20:17:00,
2013-05-17 16:22:00,65.3,44.6,30.15,SE,140,5.0,5.0,47,0.00,,CLR,0.00,VWS V14.01,2013-05-17 20:22:00,
2013-05-17 16:27:00,64.9,44.2,30.14,SE,130,11.0,12.0,47,0.00,,CLR,0.00,VWS V14.01,2013-05-17 20:27:00,
2013-05-17 16:32:00,64.9,44.2,30.14,ESE,119,14.0,14.0,47,0.00,,CLR,0.00,VWS V14.01,2013-05-17 20:32:00,
2013-05-17 16:37:00,65.1,44.4,30.14,East,84,8.0,10.0,47,0.00,,CLR,0.00,VWS V14.01,2013-05-17 20:37:00,
2013-05-17 16:42:00,65.4,45.2,30.14,SE,124,5.0,8.0,48,0.00,,CLR,0.00,VWS V14.01,2013-05-17 20:42:00,
2013-05-17 16:47:00,65.3,44.6,30.14,ESE,107,6.0,7.0,47,0.00,,CLR,0.00,VWS V14.01,2013-05-17 20:47:00,
2013-05-17 16:52:00,65.6,44.8,30.14,ESE,103,10.0,13.0,47,0.00,,CLR,0.00,VWS V14.01,2013-05-17 20:52:00,
2013-05-17 16:57:00,65.5,44.8,30.14,ESE,105,8.0,9.0,47,0.00,,CLR,0.00,VWS V14.01,2013-05-17 20:57:00,
2013-05-17 17:02:00,65.5,43.6,30.14,SE,132,5.0,8.0,45,0.00,,CLR,0.00,VWS V14.01,2013-05-17 21:02:00,
2013-05-17 17:07:00,64.9,43.1,30.14,ESE,119,9.0,9.0,45,0.00,,CLR,0.00,VWS V14.01,2013-05-17 21:07:00,
2013-05-17 17:12:00,65.4,43.5,30.14,ESE,108,9.0,12.0,45,0.00,,CLR,0.00,VWS V14.01,2013-05-17 21:12:00,
2013-05-17 17:17:00,65.1,43.3,30.14,ENE,78,8.0,11.0,45,0.00,,CLR,0.00,VWS V14.01,2013-05-17 21:17:00,
2013-05-17 17:22:00,65.2,43.9,30.14,East,82,10.0,11.0,46,0.00,,CLR,0.00,VWS V14.01,2013-05-17 21:22:00,
2013-05-17 17:27:00,65.5,44.2,30.14,ENE,71,6.0,7.0,46,0.00,,CLR,0.00,VWS V14.01,2013-05-17 21:27:00,
2013-05-17 17:32:00,65.0,43.2,30.14,ENE,59,6.0,9.0,45,0.00,,CLR,0.00,VWS V14.01,2013-05-17 21:32:00,
2013-05-17 17:37:00,65.0,43.2,30.14,NNE,12,8.0,9.0,45,0.00,,CLR,0.00,VWS V14.01,2013-05-17 21:37:00,
2013-05-17 17:42:00,65.5,43.0,30.14,East,90,4.0,5.0,44,0.00,,CLR,0.00,VWS V14.01,2013-05-17 21:42:00,
2013-05-17 17:47:00,65.1,43.3,30.14,ENE,60,6.0,6.0,45,0.00,,CLR,0.00,VWS V14.01,2013-05-17 21:47:00,
2013-05-17 17:52:00,65.4,43.5,30.14,East,92,8.0,8.0,45,0.00,,CLR,0.00,VWS V14.01,2013-05-17 21:52:00,
2013-05-17 17:57:00,65.2,43.3,30.14,East,80,7.0,8.0,45,0.00,,CLR,0.00,VWS V14.01,2013-05-17 21:57:00,
2013-05-17 18:02:00,65.2,42.8,30.13,ESE,105,9.0,9.0,44,0.00,,CLR,0.00,VWS V14.01,2013-05-17 22:02:00,
2013-05-17 18:07:00,64.5,42.1,30.13,East,101,8.0,11.0,44,0.00,,CLR,0.00,VWS V14.01,2013-05-17 22:07:00,
2013-05-17 18:12:00,64.2,42.4,30.13,ESE,112,12.0,13.0,45,0.00,,CLR,0.00,VWS V14.01,2013-05-17 22:12:00,
2013-05-17 18:17:00,63.9,42.2,30.13,East,84,7.0,8.0,45,0.00,,CLR,0.00,VWS V14.01,2013-05-17 22:17:00,
2013-05-17 18:22:00,63.4,42.3,30.13,NE,52,4.0,4.0,46,0.00,,CLR,0.00,VWS V14.01,2013-05-17 22:22:00,
2013-05-17 18:27:00,63.6,42.5,30.13,ENE,78,11.0,11.0,46,0.00,,CLR,0.00,VWS V14.01,2013-05-17 22:27:00,
2013-05-17 18:32:00,63.4,42.3,30.13,East,96,9.0,13.0,46,0.00,,CLR,0.00,VWS V14.01,2013-05-17 22:32:00,
2013-05-17 18:37:00,63.4,42.8,30.13,ENE,75,9.0,11.0,47,0.00,,CLR,0.00,VWS V14.01,2013-05-17 22:37:00,
2013-05-17 18:42:00,63.4,42.8,30.13,East,82,10.0,11.0,47,0.00,,CLR,0.00,VWS V14.01,2013-05-17 22:42:00,
2013-05-17 18:47:00,63.3,42.8,30.13,East,95,8.0,11.0,47,0.00,,CLR,0.00,VWS V14.01,2013-05-17 22:47:00,
2013-05-17 18:52:00,63.2,43.2,30.12,ENE,78,7.0,11.0,48,0.00,,CLR,0.00,VWS V14.01,2013-05-17 22:52:00,
2013-05-17 18:57:00,63.1,42.6,30.13,East,83,10.0,11.0,47,0.00,,CLR,0.00,VWS V14.01,2013-05-17 22:57:00,
2013-05-17 19:02:00,62.6,42.1,30.13,ENE,71,13.0,13.0,47,0.00,,CLR,0.00,VWS V14.01,2013-05-17 23:02:00,
2013-05-17 19:07:00,62.2,42.8,30.13,East,85,5.0,5.0,49,0.00,,CLR,0.00,VWS V14.01,2013-05-17 23:07:00,
2013-05-17 19:12:00,62.2,42.3,30.12,East,80,13.0,13.0,48,0.00,,CLR,0.00,VWS V14.01,2013-05-17 23:12:00,
2013-05-17 19:17:00,62.1,42.7,30.12,East,101,10.0,10.0,49,0.00,,CLR,0.00,VWS V14.01,2013-05-17 23:17:00,
2013-05-17 19:22:00,61.8,42.5,30.12,East,94,8.0,9.0,49,0.00,,CLR,0.00,VWS V14.01,2013-05-17 23:22:00,
2013-05-17 19:27:00,61.5,42.2,30.12,East,83,7.0,7.0,49,0.00,,CLR,0.00,VWS V14.01,2013-05-17 23:27:00,
2013-05-17 19:33:00,61.2,42.4,30.12,East,100,10.0,10.0,50,0.00,,CLR,0.00,VWS V14.01,2013-05-17 23:33:00,
2013-05-17 19:38:00,61.2,42.4,30.12,East,99,12.0,13.0,50,0.00,,CLR,0.00,VWS V14.01,2013-05-17 23:38:00,
2013-05-17 19:43:00,61.3,42.5,30.12,East,98,8.0,10.0,50,0.00,,CLR,0.00,VWS V14.01,2013-05-17 23:43:00,
2013-05-17 19:48:00,61.2,43.0,30.12,East,90,7.0,8.0,51,0.00,,CLR,0.00,VWS V14.01,2013-05-17 23:48:00,
2013-05-17 19:53:00,61.0,42.8,30.12,East,96,8.0,9.0,51,0.00,,CLR,0.00,VWS V14.01,2013-05-17 23:53:00,
2013-05-17 19:58:00,60.8,42.6,30.12,East,101,10.0,10.0,51,0.00,,CLR,0.00,VWS V14.01,2013-05-17 23:58:00,
2013-05-17 20:03:00,60.5,42.3,30.12,ESE,102,8.0,9.0,51,0.00,,CLR,0.00,VWS V14.01,2013-05-18 00:03:00,
2013-05-17 20:08:00,60.3,42.6,30.12,East,94,9.0,9.0,52,0.00,,CLR,0.00,VWS V14.01,2013-05-18 00:08:00,
2013-05-17 20:13:00,60.0,42.3,30.12,East,90,13.0,13.0,52,0.00,,CLR,0.00,VWS V14.01,2013-05-18 00:13:00,
2013-05-17 20:18:00,59.8,42.7,30.12,ESE,109,8.0,10.0,53,0.00,,CLR,0.00,VWS V14.01,2013-05-18 00:18:00,
2013-05-17 20:23:00,59.4,42.8,30.12,SE,125,7.0,7.0,54,0.00,,CLR,0.00,VWS V14.01,2013-05-18 00:23:00,
2013-05-17 20:28:00,58.8,42.7,30.12,ESE,106,3.0,6.0,55,0.00,,CLR,0.00,VWS V14.01,2013-05-18 00:28:00,
2013-05-17 20:33:00,58.4,42.3,30.12,ESE,115,8.0,8.0,55,0.00,,CLR,0.00,VWS V14.01,2013-05-18 00:33:00,
2013-05-17 20:38:00,58.2,42.6,30.12,ESE,105,11.0,12.0,56,0.00,,CLR,0.00,VWS V14.01,2013-05-18 00:38:00,
2013-05-17 20:43:00,57.9,42.8,30.12,ESE,108,6.0,6.0,57,0.00,,CLR,0.00,VWS V14.01,2013-05-18 00:43:00,
2013-05-17 20:48:00,57.5,42.4,30.13,East,101,6.0,7.0,57,0.00,,CLR,0.00,VWS V14.01,2013-05-18 00:48:00,
2013-05-17 20:53:00,57.2,42.6,30.13,SE,128,5.0,8.0,58,0.00,,CLR,0.00,VWS V14.01,2013-05-18 00:53:00,
2013-05-17 20:58:00,56.9,42.3,30.13,ESE,113,6.0,7.0,58,0.00,,CLR,0.00,VWS V14.01,2013-05-18 00:58:00,
2013-05-17 21:03:00,56.9,42.7,30.13,ESE,116,6.0,6.0,59,0.00,,CLR,0.00,VWS V14.01,2013-05-18 01:03:00,
2013-05-17 21:08:00,56.8,42.6,30.13,ESE,123,7.0,7.0,59,0.00,,CLR,0.00,VWS V14.01,2013-05-18 01:08:00,
2013-05-17 21:13:00,56.8,42.6,30.13,ESE,107,6.0,6.0,59,0.00,,CLR,0.00,VWS V14.01,2013-05-18 01:13:00,
2013-05-17 21:18:00,56.7,42.5,30.13,ESE,121,9.0,10.0,59,0.00,,CLR,0.00,VWS V14.01,2013-05-18 01:18:00,
2013-05-17 21:23:00,56.7,42.5,30.14,ESE,111,4.0,7.0,59,0.00,,CLR,0.00,VWS V14.01,2013-05-18 01:23:00,
2013-05-17 21:28:00,56.6,42.9,30.14,ESE,117,6.0,6.0,60,0.00,,CLR,0.00,VWS V14.01,2013-05-18 01:28:00,
2013-05-17 21:33:00,56.5,42.8,30.14,SE,128,5.0,8.0,60,0.00,,CLR,0.00,VWS V14.01,2013-05-18 01:33:00,
2013-05-17 21:38:00,56.4,42.7,30.15,ESE,120,3.0,3.0,60,0.00,,CLR,0.00,VWS V14.01,2013-05-18 01:38:00,
2013-05-17 21:43:00,56.0,42.8,30.15,SE,130,2.0,3.0,61,0.00,,CLR,0.00,VWS V14.01,2013-05-18 01:43:00,
2013-05-17 21:48:00,55.8,43.0,30.15,ESE,118,6.0,6.0,62,0.00,,CLR,0.00,VWS V14.01,2013-05-18 01:48:00,
2013-05-17 21:53:00,55.8,42.6,30.15,ESE,111,3.0,4.0,61,0.00,,CLR,0.00,VWS V14.01,2013-05-18 01:53:00,
2013-05-17 21:58:00,55.7,42.5,30.15,ESE,105,4.0,4.0,61,0.00,,CLR,0.00,VWS V14.01,2013-05-18 01:58:00,
2013-05-17 22:03:00,55.5,42.3,30.16,SE,126,4.0,4.0,61,0.00,,CLR,0.00,VWS V14.01,2013-05-18 02:03:00,
2013-05-17 22:09:00,55.7,42.5,30.16,ESE,119,3.0,6.0,61,0.00,,CLR,0.00,VWS V14.01,2013-05-18 02:09:00,
2013-05-17 22:14:00,55.7,42.0,30.16,ESE,120,3.0,3.0,60,0.00,,CLR,0.00,VWS V14.01,2013-05-18 02:14:00,
2013-05-17 22:19:00,55.5,42.3,30.17,ESE,119,3.0,3.0,61,0.00,,CLR,0.00,VWS V14.01,2013-05-18 02:19:00,
2013-05-17 22:24:00,55.0,41.8,30.17,SE,125,3.0,3.0,61,0.00,,CLR,0.00,VWS V14.01,2013-05-18 02:24:00,
2013-05-17 22:29:00,54.8,42.0,30.17,ESE,112,3.0,3.0,62,0.00,,CLR,0.00,VWS V14.01,2013-05-18 02:29:00,
2013-05-17 22:34:00,53.8,41.9,30.17,ESE,107,3.0,3.0,64,0.00,,CLR,0.00,VWS V14.01,2013-05-18 02:34:00,
2013-05-17 22:39:00,53.4,41.9,30.17,ESE,111,2.0,2.0,65,0.00,,CLR,0.00,VWS V14.01,2013-05-18 02:39:00,
2013-05-17 22:44:00,53.1,42.1,30.17,ESE,117,2.0,3.0,66,0.00,,CLR,0.00,VWS V14.01,2013-05-18 02:44:00,
2013-05-17 22:49:00,52.3,42.1,30.17,ESE,105,4.0,4.0,68,0.00,,CLR,0.00,VWS V14.01,2013-05-18 02:49:00,
2013-05-17 22:54:00,51.8,42.0,30.17,ESE,118,3.0,3.0,69,0.00,,CLR,0.00,VWS V14.01,2013-05-18 02:54:00,
2013-05-17 22:59:00,52.1,41.9,30.17,ESE,118,2.0,2.0,68,0.00,,CLR,0.00,VWS V14.01,2013-05-18 02:59:00,
2013-05-17 23:04:00,52.3,42.1,30.17,ESE,117,3.0,3.0,68,0.00,,CLR,0.00,VWS V14.01,2013-05-18 03:04:00,
2013-05-17 23:09:00,52.1,41.9,30.17,SE,128,2.0,2.0,68,0.00,,CLR,0.00,VWS V14.01,2013-05-18 03:09:00,
2013-05-17 23:14:00,52.0,41.4,30.17,SE,125,2.0,3.0,67,0.00,,CLR,0.00,VWS V14.01,2013-05-18 03:14:00,
2013-05-17 23:19:00,51.9,41.3,30.18,SE,127,3.0,3.0,67,0.00,,CLR,0.00,VWS V14.01,2013-05-18 03:19:00,
2013-05-17 23:24:00,52.2,41.6,30.18,ESE,121,3.0,3.0,67,0.00,,CLR,0.00,VWS V14.01,2013-05-18 03:24:00,
2013-05-17 23:29:00,51.9,41.3,30.18,ESE,117,3.0,3.0,67,0.00,,CLR,0.00,VWS V14.01,2013-05-18 03:29:00,
2013-05-17 23:34:00,51.7,41.5,30.18,SE,125,2.0,3.0,68,0.00,,CLR,0.00,VWS V14.01,2013-05-18 03:34:00,
2013-05-17 23:39:00,51.7,41.5,30.18,ESE,123,2.0,2.0,68,0.00,,CLR,0.00,VWS V14.01,2013-05-18 03:39:00,
2013-05-17 23:44:00,51.6,41.4,30.18,SE,131,1.0,2.0,68,0.00,,CLR,0.00,VWS V14.01,2013-05-18 03:44:00,
2013-05-17 23:50:00,51.4,41.2,30.18,ESE,121,2.0,2.0,68,0.00,,CLR,0.00,VWS V14.01,2013-05-18 03:50:00,
2013-05-17 23:55:00,51.6,41.4,30.18,SE,126,2.0,2.0,68,0.00,,CLR,0.00,VWS V14.01,2013-05-18 03:55:00,